Location: Wells
(51.2093°N, 2.6446°W)
Time: 06:14:30
(UTC+00:00)

Oscar 11 - Visible Passes

Search period start: 09 March 2026 00:00
Search period end: 19 March 2026 00:00
Orbit: 591 x 602 km, 97.8° (Epoch: 8 March)

Date Brightness Start Highest point End Pass type
(mag) Time Alt. Az. Time Alt. Az. Time Alt. Az.
9 Mar 7.4 03:46:57 10° NNE 03:50:34 61° NE 03:50:34 61° NE visible
9 Mar 8.6 05:23:41 10° NNW 05:26:19 16° WNW 05:27:15 15° WNW visible
10 Mar 10.0 02:23:35 10° ENE 02:24:06 11° ENE 02:24:06 11° ENE visible
10 Mar 7.0 03:56:54 10° NNE 04:00:47 76° NNE 04:00:47 76° NNE visible
10 Mar 8.8 05:34:02 10° NNW 05:36:09 14° NW 05:37:28 12° WNW visible
11 Mar 9.8 02:32:42 10° NE 02:34:20 14° E 02:34:20 14° E visible
11 Mar 6.8 04:06:52 10° N 04:11:00 74° WNW 04:11:00 74° WNW visible
11 Mar 9.0 05:44:36 10° NW 05:45:58 11° NW 05:47:20 10° WNW visible
12 Mar 9.5 02:42:11 10° NE 02:44:32 17° E 02:44:32 17° E visible
12 Mar 6.9 04:16:52 10° N 04:20:59 59° WNW 04:21:13 58° W visible
13 Mar 9.2 02:51:48 10° NE 02:54:44 21° E 02:54:44 21° E visible
13 Mar 7.2 04:26:52 10° N 04:30:54 47° WNW 04:31:25 45° W visible
14 Mar 8.9 03:01:30 10° NE 03:04:56 26° E 03:04:56 26° E visible
14 Mar 7.5 04:36:54 10° N 04:40:47 38° WNW 04:41:37 34° W visible
15 Mar 8.5 03:11:16 10° NNE 03:15:02 32° E 03:15:08 31° E visible
15 Mar 7.8 04:46:57 10° N 04:50:40 31° WNW 04:51:49 27° W visible
16 Mar 8.1 03:21:04 10° NNE 03:25:01 39° E 03:25:20 38° ESE visible
16 Mar 8.1 04:57:02 10° N 05:00:31 26° WNW 05:02:01 21° W visible
17 Mar 7.7 03:30:55 10° NNE 03:34:59 49° E 03:35:31 46° SE visible
17 Mar 8.3 05:07:08 10° NNW 05:10:22 22° WNW 05:12:12 17° W visible
18 Mar 7.3 03:40:47 10° NNE 03:44:56 62° E 03:45:42 51° SSE visible
18 Mar 8.6 05:17:18 10° NNW 05:20:11 18° WNW 05:22:23 13° W visible
